SCP
1 1 1 1 1 0 0 0 0 0 0 0 0 0 0 0 0 0 0 0 0 0 0 0 0 0 0 1 1 1 1 1 1 1 1 1 1 1 1 1 1 1 0 0 0 0 0 0 0
1 1 1 1 1 0 0 0 0 0 0 0 0 0 0 0 0 0 0 0 0 0 0 0 0 0 0 0 1 1 1 1 1 1 1 1 1 1 1 1 1 0 0 0 0 0 0 0 0
1 1 1 1 0 0 0 0 0 0 0 0 0 0 0 0 0 0 0 0 0 0 0 0 0 0 0 0 0 0 1 1 1 1 1 1 1 0 0 0 0 0 0 0 0 0 0 0 0
1 1 0 0 0 0 0 0 0 0 0 0 0 0 0 0 0 0 0 0 0 0 0 0 0 0 0 0 0 0 1 1 1 1 1 1 0 0 0 0 0 0 0 0 0 0 0 0 0
1 0 0 0 0 0 0 0 0 0 0 0 0 0 0 0 0 0 1 0 0 0 0 0 0 0 0 1 1 1 1 1 1 1 1 0 0 0 0 0 0 0 0 0 0 0 0 0 0
0 0 0 0 0 0 0 0 0 0 0 1 1 1 1 1 1 1 1 0 0 0 0 0 0 0 0 1 1 1 1 1 1 1 1 0 0 0 0 0 0 0 0 0 0 0 0 0 0
0 0 0 0 0 0 0 0 0 0 1 1 1 1 1 1 1 1 1 1 0 0 0 0 0 0 0 1 1 1 1 1 1 1 0 0 0 0 0 0 0 0 0 0 0 0 0 0 0
0 0 0 0 0 0 0 0 1 1 1 1 1 1 2 2 2 2 1 1 1 1 1 0 0 0 0 0 0 0 0 0 0 0 0 0 0 0 0 0 0 0 0 0 0 0 0 0 0
0 0 0 0 0 0 0 0 1 1 1 1 1 1 2 3 3 2 2 2 1 1 1 1 0 0 0 0 0 0 0 0 0 0 0 0 0 0 0 0 0 0 0 0 0 0 0 0 0
0 0 0 0 0 0 0 0 0 1 1 1 1 2 3 3 3 3 2 2 2 2 2 1 1 0 0 0 0 0 0 0 0 0 0 0 0 0 0 0 0 0 0 0 0 0 0 0 0
0 0 0 0 0 0 0 0 0 0 1 1 2 3 3 3 3 2 2 2 2 2 2 1 1 1 0 0 0 1 1 0 0 0 0 0 0 0 0 0 0 0 0 0 0 0 0 0 0
0 0 0 0 0 0 0 0 0 0 0 1 2 3 3 3 2 2 1 2 2 2 2 2 1 1 0 0 0 1 1 0 0 0 0 0 0 0 0 0 0 0 0 0 0 0 0 0 0
0 0 0 0 0 0 0 0 0 0 0 1 2 3 3 2 2 2 1 1 2 2 2 2 1 1 0 0 0 0 0 0 0 0 0 0 0 0 0 0 0 0 0 0 0 0 0 0 0
0 0 0 0 0 0 0 0 0 0 0 1 1 2 2 2 2 2 1 1 1 1 2 2 1 1 1 0 0 0 0 0 0 0 0 0 0 0 0 0 0 0 0 0 0 0 0 0 0
0 0 0 0 0 0 0 0 0 0 0 1 1 2 2 2 2 2 1 1 1 1 1 1 1 1 1 1 1 0 0 0 1 1 1 0 0 0 0 0 0 0 0 0 0 0 0 0 0
0 0 0 0 0 0 0 0 0 0 0 1 1 1 1 1 1 1 1 1 1 1 2 1 1 1 1 1 1 1 1 0 1 1 1 1 1 0 0 0 0 0 0 0 0 0 0 0 0
0 0 0 0 0 0 0 0 0 0 0 1 1 1 1 1 2 2 2 2 2 2 2 2 2 2 2 2 2 1 1 1 1 1 1 1 1 1 0 0 0 0 0 0 0 0 0 0 0
0 0 0 0 0 0 0 0 0 0 0 0 1 1 1 1 2 2 2 2 2 3 4 3 3 2 2 2 2 2 1 1 1 1 1 1 1 1 1 1 1 1 0 0 0 1 1 0 0
0 0 0 0 1 1 0 0 0 0 0 1 1 1 1 1 1 2 2 2 2 4 6 5 3 3 2 3 2 2 2 1 1 1 1 1 1 1 1 1 1 1 1 0 0 1 1 0 1
0 0 0 1 1 1 1 1 0 0 1 1 1 1 1 1 2 2 2 3 3 5 6 4 3 3 3 3 3 2 2 1 1 1 1 1 1 1 1 1 1 1 1 1 1 1 1 1 1
0 0 0 0 1 1 1 1 0 1 1 1 1 1 2 2 2 2 3 3 4 4 4 3 3 3 3 3 3 3 2 1 1 1 1 1 1 1 1 1 1 1 1 1 1 1 1 1 1
0 0 0 0 0 0 0 0 0 1 1 1 1 2 2 3 3 3 3 3 4 4 3 3 3 3 3 3 3 2 2 1 1 1 1 2 2 2 2 1 1 1 1 1 1 1 1 1 1
0 0 0 0 0 0 0 0 0 1 1 1 2 3 3 4 4 3 3 3 3 3 3 3 3 3 3 3 2 2 2 2 1 1 2 2 2 2 2 1 1 1 1 1 1 2 2 1 1
0 0 0 0 0 0 0 0 0 0 1 1 3 4 4 4 3 3 3 3 3 3 3 3 3 4 3 3 2 2 2 2 2 2 2 2 2 2 1 1 1 1 1 2 2 2 3 2 2
0 0 0 0 0 0 0 0 0 1 1 2 3 3 3 3 3 2 2 3 3 3 3 3 4 4 4 3 3 3 3 3 3 3 3 2 2 2 1 1 2 2 2 2 2 3 3 3 3
0 0 0 0 0 0 0 0 0 1 1 2 2 2 2 2 2 2 2 2 2 2 3 3 4 4 4 3 3 3 3 3 3 3 3 2 2 2 2 2 2 2 2 2 2 3 3 3 3
0 0 0 0 0 0 0 0 0 1 1 1 1 1 2 2 2 2 2 2 2 2 3 4 4 4 4 4 4 4 4 3 3 3 3 2 2 2 2 2 2 2 2 2 2 2 2 3 3
0 0 0 0 0 0 0 0 0 1 1 1 1 1 2 2 2 2 2 2 3 3 4 4 4 5 5 4 4 4 4 3 3 3 3 3 2 2 2 2 1 2 2 2 2 2 2 2 2
0 0 0 0 0 0 0 0 1 1 1 1 1 2 2 2 2 2 2 3 4 5 5 5 4 5 5 4 4 4 4 3 3 3 3 3 2 2 2 2 2 2 2 2 2 2 2 2 2
0 0 0 0 0 0 0 0 1 1 1 2 2 2 2 2 2 2 2 3 5 6 6 5 4 4 4 4 4 4 3 3 3 3 3 3 2 2 2 2 2 2 2 2 2 2 2 2 2
Wind_Speed
8 7 5 5 5 6 13 11 9 8 8 7 7 5 7 9 7 11 11 13 13 13 14 13 12 12 13 13 13 14 14 14 14 14 14 14 14 14 15 15 15 15 15 15 15 16 16 16 16
4 4 6 6 2 10 12 9 10 10 9 9 7 6 8 9 9 12 13 13 13 13 13 13 13 12 13 13 13 13 13 14 14 14 14 14 14 14 15 15 14 15 15 15 15 15 15 15 15
5 6 6 1 8 11 11 9 9 9 7 6 6 7 7 8 10 11 13 15 14 13 13 15 13 12 13 13 13 13 13 13 14 14 13 14 14 14 14 14 14 14 14 15 15 15 15 14 15
5 6 5 3 12 10 9 8 8 8 7 6 7 9 8 7 7 12 16 15 14 13 13 15 12 13 13 13 13 13 13 13 13 13 13 13 14 14 14 13 13 14 14 14 14 14 14 14 14
6 5 3 8 10 8 7 6 5 6 6 6 6 10 10 7 11 16 15 14 14 13 14 15 12 13 12 12 12 12 13 13 13 13 13 13 13 13 13 13 13 13 13 13 13 13 13 13 13
5 4 3 8 9 7 6 5 4 6 8 8 9 11 9 9 14 15 14 13 13 13 13 15 13 12 12 12 12 12 12 12 12 13 13 12 12 12 12 12 12 13 13 12 12 12 12 12 12
4 1 4 6 8 7 5 3 3 5 6 7 7 9 10 11 14 14 13 12 12 12 12 13 13 12 12 12 12 12 12 12 12 12 12 12 12 12 12 11 12 12 12 11 11 12 11 11 11
5 2 5 5 5 7 6 4 3 4 7 8 5 7 11 14 15 14 13 11 11 11 11 11 11 11 11 12 11 11 11 11 11 11 11 12 12 12 11 11 11 11 11 10 11 11 11 10 10
6 4 5 4 4 6 6 5 5 4 9 7 4 5 14 19 17 15 13 12 11 10 9 10 10 9 9 10 12 11 11 11 11 10 10 9 8 10 9 12 11 10 10 9 10 10 9 9 10
5 2 6 5 4 4 4 4 7 7 9 8 8 12 19 19 17 16 15 15 14 12 11 9 10 9 8 7 8 7 8 8 6 7 7 5 5 5 8 11 9 9 9 9 9 8 8 6 7
3 1 4 3 3 1 3 4 5 7 6 8 12 18 20 19 17 16 15 14 13 12 11 10 9 8 8 6 6 4 4 5 6 7 6 5 5 5 6 6 7 7 8 7 8 7 4 4 3
3 2 0 1 1 1 1 3 5 4 3 6 12 20 21 20 18 16 15 13 13 12 12 10 10 8 6 5 5 5 5 4 5 6 5 5 3 3 4 3 4 4 3 3 3 2 3 3 3
5 3 2 1 2 2 3 4 3 3 4 8 15 19 20 18 16 14 14 13 12 12 12 11 10 9 7 5 4 5 4 5 5 5 4 4 4 4 4 3 2 3 3 4 3 3 3 3 3
3 3 3 3 2 3 4 4 5 4 7 12 16 18 18 18 17 15 14 14 13 13 12 11 11 10 8 6 5 4 4 4 4 5 5 4 3 3 3 4 3 2 2 2 2 3 3 2 2
4 6 6 4 4 3 5 7 6 7 10 13 15 16 17 17 16 16 15 14 14 13 12 12 11 10 9 8 7 5 5 5 4 4 5 5 4 4 3 3 3 3 3 3 3 3 2 3 3
8 10 10 7 4 4 8 7 7 9 11 12 14 14 15 16 16 15 14 13 13 12 12 12 10 11 10 8 6 5 5 5 4 4 5 6 4 5 4 3 3 3 3 3 3 3 3 2 2
11 12 11 8 6 4 9 5 7 9 10 11 13 14 15 15 16 15 14 14 13 12 12 12 11 11 11 9 7 6 5 4 4 4 4 5 6 5 5 3 3 4 3 3 3 3 2 2 2
12 12 11 8 6 6 9 6 5 8 10 11 13 14 14 16 16 16 15 14 13 13 12 12 12 11 10 9 7 6 6 5 5 5 5 6 6 6 5 4 4 5 4 4 3 2 3 3 3
7 10 10 6 4 7 9 8 6 7 9 11 12 13 15 15 15 15 15 14 14 13 13 13 12 12 10 8 8 7 7 7 6 6 7 7 7 7 6 5 5 5 5 4 5 4 5 4 3
10 11 9 6 4 7 8 9 7 7 10 10 11 13 14 14 15 15 15 15 15 14 14 14 13 12 12 9 7 6 5 6 6 6 7 8 8 7 7 7 6 6 5 6 6 5 5 4 4
12 12 9 6 5 7 7 11 10 8 8 9 10 11 12 14 16 16 17 16 16 16 16 13 14 14 13 11 8 6 5 5 6 7 7 8 9 9 8 7 7 6 7 6 6 6 7 5 5
12 8 7 8 8 8 8 9 10 9 9 10 10 11 12 13 15 16 16 17 17 16 15 14 14 13 13 12 10 11 9 8 8 7 6 7 9 9 9 9 9 8 7 6 7 7 6 6 5
7 7 8 8 9 9 9 11 8 8 10 11 11 11 11 12 14 15 16 16 15 15 14 13 13 13 13 12 12 11 10 9 7 7 7 7 8 9 10 10 9 8 7 8 7 5 7 6 6
8 8 7 8 9 13 12 11 9 8 9 8 9 10 10 11 12 13 14 14 13 14 13 13 14 14 14 14 13 13 12 10 9 9 7 7 6 7 10 10 9 9 8 8 8 7 8 7 7
14 12 9 11 11 10 8 10 7 3 4 6 5 6 8 10 11 13 14 14 13 14 14 13 14 14 14 14 13 13 12 11 11 9 8 7 7 7 8 9 8 8 8 8 8 8 8 8 8
17 17 10 9 10 8 8 10 5 3 3 4 4 5 6 8 10 12 13 14 14 14 14 13 13 13 13 13 12 11 11 9 8 9 8 8 7 7 7 8 8 8 8 8 8 7 8 7 8
16 17 13 9 6 7 9 6 6 6 5 5 5 6 7 7 9 11 12 12 12 13 13 13 13 11 11 11 11 10 11 10 9 8 8 7 7 6 7 7 8 8 8 8 8 7 7 6 7
12 13 9 10 9 11 9 9 7 8 7 5 4 5 6 7 7 8 9 10 11 11 12 12 12 11 11 11 10 9 10 10 9 8 8 8 7 7 7 7 7 7 8 8 8 7 6 6 6
13 15 12 11 10 9 8 6 3 4 3 4 4 4 5 6 7 8 8 9 10 10 10 11 11 10 10 9 9 8 9 9 8 8 8 7 7 7 7 7 7 7 6 6 6 7 7 7 6
15 15 15 11 9 9 8 3 6 2 2 3 3 4 4 5 6 7 8 8 9 9 9 9 9 9 9 8 8 8 7 7 7 7 6 6 6 6 6 5 5 6 6 5 6 6 6 6 6
Wind_Direction
219 218 231 239 218 82 71 71 75 85 83 82 78 59 59 42 32 84 113 129 129 124 121 127 122 120 117 116 114 114 115 115 115 113 111 110 109 108 107 106 105 105 104 104 103 101 101 103 103
230 222 237 240 73 82 74 71 74 71 94 105 90 77 74 67 64 108 129 130 133 127 128 121 121 121 118 117 115 115 114 114 114 114 113 112 110 109 107 106 105 105 106 105 103 102 102 103 104
232 241 263 218 62 65 77 76 85 92 102 105 91 66 59 79 108 122 129 138 134 128 123 117 127 123 121 119 116 116 116 116 115 114 113 113 110 109 108 107 107 106 106 105 105 103 103 105 105
243 228 234 93 80 68 73 90 105 112 101 92 103 91 80 91 118 127 135 141 136 133 127 121 130 125 123 120 118 117 117 115 114 114 114 114 113 112 110 109 108 107 108 108 107 106 106 107 107
244 254 165 98 84 83 85 94 110 102 98 101 103 101 93 93 118 130 140 143 140 133 127 127 129 126 125 122 121 119 117 116 116 116 116 115 114 113 111 110 109 109 109 108 107 108 110 109 108
244 241 143 99 96 97 95 110 118 97 105 112 114 110 94 122 133 141 144 146 140 134 130 126 130 128 127 125 122 119 117 116 115 116 116 116 114 112 111 112 111 111 110 108 108 111 112 112 111
285 254 99 100 108 107 94 113 124 108 115 113 121 113 119 142 142 143 144 149 140 137 133 137 141 138 133 127 125 121 118 116 115 115 116 116 116 114 113 113 114 113 112 112 112 114 116 116 116
300 235 131 113 108 98 107 123 116 125 104 115 138 132 145 153 150 147 149 146 142 142 141 143 141 142 145 139 130 125 123 120 118 117 119 120 121 121 125 125 116 116 115 114 114 115 117 119 121
266 230 127 99 88 100 124 138 124 116 127 133 116 103 133 146 153 153 152 153 153 150 149 149 143 148 148 140 135 140 134 129 135 130 131 152 145 134 143 109 119 121 119 116 115 115 122 133 131
254 199 89 62 41 89 137 152 141 161 154 143 129 116 132 151 160 162 164 164 162 160 160 158 150 154 151 140 144 153 148 142 151 133 145 143 115 117 112 114 122 124 125 123 120 127 152 178 141
251 105 90 88 47 41 142 146 169 182 172 166 156 147 152 160 166 171 171 169 163 165 165 160 155 162 155 148 154 148 140 140 143 138 142 131 139 137 134 138 142 143 154 144 140 167 162 131 108
216 145 141 63 38 274 185 166 179 204 96 126 152 154 159 167 173 175 173 172 166 171 170 164 161 164 166 156 150 158 154 153 148 144 163 147 147 142 133 143 140 151 147 136 151 145 127 122 128
210 178 183 256 248 263 233 204 191 171 120 131 145 157 166 171 174 176 174 175 172 176 174 169 170 167 168 163 174 166 158 155 144 150 155 158 157 154 143 139 147 160 142 159 163 151 141 153 155
195 217 227 231 213 196 222 196 196 149 142 147 156 166 172 174 175 175 177 178 180 181 179 174 178 172 174 175 178 170 166 160 161 161 155 174 165 150 155 161 165 161 170 151 159 158 172 186 161
209 220 213 193 202 185 221 205 193 143 155 160 167 171 173 176 179 182 181 183 184 183 179 178 181 178 181 184 184 181 177 177 174 160 162 180 180 162 180 174 176 169 165 161 191 177 194 200 192
209 219 212 173 192 188 234 213 153 155 170 170 172 174 177 180 186 186 183 186 185 184 180 183 185 181 184 188 191 191 191 183 184 179 171 183 189 184 200 194 183 169 192 192 184 209 203 206 218
204 215 211 175 186 206 234 232 147 166 183 180 179 180 183 182 190 190 188 188 187 186 182 184 190 185 187 187 191 200 192 198 199 191 189 184 196 196 208 209 174 198 204 209 219 197 221 220 231
203 211 207 199 177 222 231 233 173 184 197 193 187 186 189 190 192 190 190 189 187 187 185 187 191 191 189 189 192 200 199 201 210 204 199 198 201 205 213 208 198 216 209 211 222 228 238 249 244
223 217 212 196 175 228 230 234 211 194 205 204 196 193 195 199 192 188 189 189 187 187 187 190 195 191 192 192 195 195 198 202 204 208 206 209 213 209 216 226 199 220 220 224 223 228 222 233 238
216 217 208 182 184 236 233 237 223 209 213 213 204 201 200 194 189 187 190 190 190 189 190 190 194 194 198 197 200 201 206 210 209 211 204 214 215 218 216 223 223 217 222 223 229 234 249 242 229
213 218 207 197 194 219 239 227 215 207 216 214 212 208 205 198 192 189 190 192 193 193 194 194 195 195 201 198 197 195 201 217 209 211 209 212 215 218 227 223 232 227 228 223 226 228 238 247 240
208 209 213 207 218 208 224 235 204 204 207 208 210 207 205 200 196 191 191 193 196 196 195 198 195 198 198 198 203 202 209 216 218 216 212 211 216 220 219 225 228 230 232 227 230 228 236 245 252
205 179 205 216 230 239 215 248 213 187 218 213 209 210 209 200 196 194 194 194 195 194 194 194 194 197 198 203 207 210 218 223 222 220 217 219 217 222 222 222 225 226 233 233 236 228 233 236 247
170 170 188 219 230 232 222 238 233 203 221 220 208 207 207 200 196 194 192 188 190 191 192 192 193 197 199 204 209 213 219 223 225 222 222 217 218 221 222 225 224 226 229 228 228 227 228 240 248
193 190 194 203 213 226 197 232 242 202 220 239 226 211 203 195 192 190 187 185 186 189 191 193 193 197 199 204 208 211 217 220 224 225 224 223 226 221 220 225 223 227 226 229 228 227 235 234 238
202 210 222 220 215 197 182 230 223 176 218 241 233 217 199 189 186 187 188 186 187 187 188 192 193 196 199 204 207 210 213 217 222 221 230 224 227 228 224 223 225 225 225 227 223 229 229 230 234
198 217 235 253 245 230 197 209 217 197 211 211 208 194 186 182 182 184 187 186 187 186 188 191 190 194 198 202 205 209 212 218 223 218 223 230 229 226 220 221 225 223 225 229 226 231 234 233 235
220 207 210 230 223 226 212 214 214 187 198 189 186 182 174 172 171 174 178 181 182 182 183 188 189 192 196 198 204 206 212 214 215 218 221 227 230 231 222 219 224 225 226 227 227 230 230 232 237
198 204 213 220 238 238 218 204 173 181 188 192 171 167 164 164 165 167 168 171 175 177 179 184 186 188 191 196 202 210 211 209 210 214 218 218 224 226 224 222 221 221 224 226 227 233 230 230 232
205 206 207 213 214 242 257 165 111 161 181 176 147 142 142 153 156 157 159 163 168 172 174 176 180 184 187 191 195 203 210 207 207 209 213 216 218 221 221 219 219 220 223 226 232 236 232 232 231